This is the latest recevied weather packets stored in our database for station/object WA9LT. If no packets are shown the sender has not sent any weather packets the latest 1 day(s).
| Time | Temp. | Humidity | Pressure | Rain* | Wind** | Luminosity | Snow |
|---|---|---|---|---|---|---|---|
| 1777980947 | 8.33° C | 69% | 0 hPa | 0 mm | 0 m/s | - | - |
| 1777980047 | 8.33° C | 69% | 0 hPa | 0 mm | 0 m/s | - | - |
| 1777979148 | 7.78° C | 69% | 0 hPa | 0 mm | 0 m/s | - | - |
| 1777978247 | 8.89° C | 69% | 0 hPa | 0 mm | 0.45 m/s, 101° | - | - |
| 1777977348 | 8.89° C | 69% | 0 hPa | 0 mm | 1.34 m/s, 346° | - | - |
| 1777976652 | 9.44° C | 69% | 0 hPa | 0 mm | 1.34 m/s, 332° | - | - |
| 1777976447 | 9.44° C | 69% | 0 hPa | 0 mm | 1.34 m/s, 332° | - | - |
| 1777975546 | 10° C | 69% | 0 hPa | 0 mm | 1.79 m/s, 356° | - | - |
| 1777974888 | 10° C | 69% | 0 hPa | 0 mm | 3.13 m/s, 328° | - | - |
| 1777974646 | 10° C | 69% | 0 hPa | 0 mm | 3.13 m/s, 328° | - | - |
| 1777973746 | 10° C | 69% | 1016.3 hPa | 0 mm | 2.68 m/s, 343° | - | - |
| 1777973167 | 10.56° C | 69% | 0 hPa | 0 mm | 2.68 m/s, 341° | - | - |
| 1777972848 | 10.56° C | 69% | 0 hPa | 0 mm | 2.68 m/s, 341° | - | - |
| 1777971947 | 10.56° C | 69% | 0 hPa | 0 mm | 1.79 m/s, 341° | - | - |
| 1777971046 | 10.56° C | 69% | 0 hPa | 0 mm | 2.24 m/s, 338° | - | - |
| 1777970147 | 10.56° C | 69% | 0 hPa | 0 mm | 3.58 m/s, 339° | - | - |
| 1777969486 | 10.56° C | 69% | 0 hPa | 0 mm | 2.24 m/s, 355° | - | - |
| 1777969246 | 10.56° C | 69% | 0 hPa | 0 mm | 2.24 m/s, 355° | - | - |
| 1777968347 | 11.11° C | 69% | 0 hPa | 0 mm | 3.13 m/s, 357° | - | - |
| 1777967766 | 11.11° C | 69% | 0 hPa | 0 mm | 2.68 m/s, 326° | - | - |
| 1777967447 | 11.11° C | 69% | 0 hPa | 0 mm | 2.68 m/s, 326° | - | - |
| 1777966547 | 11.11° C | 69% | 0 hPa | 0 mm | 2.68 m/s, 313° | - | - |
| 1777965646 | 11.11° C | 69% | 0 hPa | 0 mm | 1.79 m/s, 344° | - | - |
* Rain latest hour (hover to see other rain measurements)
** Current wind speed in m/s (hover to see current wind gust speed)